Time,TemperatureF,DewpointF,PressureIn,WindDirection,WindDirectionDegrees,WindSpeedMPH,WindSpeedGustMPH,Humidity,HourlyPrecipIn,Conditions,Clouds,dailyrainin,SolarRadiationWatts/m^2,SoftwareType,DateUTC
2013-09-10 00:00:00,59.6,25.6,29.72,SSE,161,7.0,7.0,27,0.00,,,0.00,0,WeatherCatV1.21B27,2013-09-10 07:00:00,
2013-09-10 00:05:00,59.6,24.7,29.72,SE,128,1.0,3.0,26,0.00,,,0.00,0,WeatherCatV1.21B27,2013-09-10 07:05:00,
2013-09-10 00:10:00,59.5,24.6,29.72,SSE,165,0.0,6.0,26,0.00,,,0.00,0,WeatherCatV1.21B27,2013-09-10 07:10:00,
2013-09-10 00:15:00,59.3,24.4,29.68,ESE,110,3.0,3.0,26,0.00,,,0.00,0,WeatherCatV1.21B27,2013-09-10 07:15:00,
2013-09-10 00:20:00,59.2,24.3,29.68,ESE,112,5.0,5.0,26,0.00,,,0.00,0,WeatherCatV1.21B27,2013-09-10 07:20:00,
2013-09-10 00:25:00,59.2,24.3,29.68,ESE,111,3.0,7.0,26,0.00,,,0.00,0,WeatherCatV1.21B27,2013-09-10 07:25:00,
2013-09-10 00:30:00,59.2,24.3,29.68,ESE,116,1.0,6.0,26,0.00,,,0.00,0,WeatherCatV1.21B27,2013-09-10 07:30:00,
2013-09-10 00:35:00,59.2,23.4,29.68,East,91,2.0,10.0,25,0.00,,,0.00,0,WeatherCatV1.21B27,2013-09-10 07:35:00,
2013-09-10 00:40:00,59.2,24.3,29.68,ESE,114,3.0,6.0,26,0.00,,,0.00,0,WeatherCatV1.21B27,2013-09-10 07:40:00,
2013-09-10 00:45:00,59.2,24.3,29.68,ENE,70,6.0,7.0,26,0.00,,,0.00,0,WeatherCatV1.21B27,2013-09-10 07:45:00,
2013-09-10 00:50:00,59.2,24.3,29.68,ESE,114,3.0,3.0,26,0.00,,,0.00,0,WeatherCatV1.21B27,2013-09-10 07:50:00,
2013-09-10 00:55:00,59.0,24.2,29.68,SE,124,0.0,6.0,26,0.00,,,0.00,0,WeatherCatV1.21B27,2013-09-10 07:55:00,
2013-09-10 01:00:00,58.9,24.1,29.68,ENE,71,4.0,6.0,26,0.00,,,0.00,0,WeatherCatV1.21B27,2013-09-10 08:00:00,
2013-09-10 01:05:00,58.7,23.9,29.68,ESE,122,0.0,6.0,26,0.00,,,0.00,0,WeatherCatV1.21B27,2013-09-10 08:05:00,
2013-09-10 01:10:00,58.7,23.9,29.68,SE,146,0.0,5.0,26,0.00,,,0.00,0,WeatherCatV1.21B27,2013-09-10 08:10:00,
2013-09-10 01:15:00,58.7,23.9,29.66,SE,138,0.0,6.0,26,0.00,,,0.00,0,WeatherCatV1.21B27,2013-09-10 08:15:00,
2013-09-10 01:20:00,58.7,23.9,29.66,ESE,114,2.0,9.0,26,0.00,,,0.00,0,WeatherCatV1.21B27,2013-09-10 08:20:00,
2013-09-10 01:25:00,58.7,23.9,29.66,East,83,3.0,6.0,26,0.00,,,0.00,0,WeatherCatV1.21B27,2013-09-10 08:25:00,
2013-09-10 01:30:00,58.7,23.9,29.67,SE,141,5.0,10.0,26,0.00,,,0.00,0,WeatherCatV1.21B27,2013-09-10 08:30:00,
2013-09-10 01:35:00,58.7,23.9,29.67,ESE,122,2.0,8.0,26,0.00,,,0.00,0,WeatherCatV1.21B27,2013-09-10 08:35:00,
2013-09-10 01:40:00,58.6,24.7,29.67,ESE,114,7.0,7.0,27,0.00,,,0.00,0,WeatherCatV1.21B27,2013-09-10 08:40:00,
2013-09-10 01:45:00,58.4,24.6,29.68,SE,142,0.0,9.0,27,0.00,,,0.00,0,WeatherCatV1.21B27,2013-09-10 08:45:00,
2013-09-10 01:50:00,58.4,24.6,29.68,East,101,6.0,6.0,27,0.00,,,0.00,0,WeatherCatV1.21B27,2013-09-10 08:50:00,
2013-09-10 01:55:00,58.4,24.6,29.68,SE,146,5.0,7.0,27,0.00,,,0.00,0,WeatherCatV1.21B27,2013-09-10 08:55:00,
2013-09-10 02:00:00,58.4,24.6,29.68,ESE,112,3.0,5.0,27,0.00,,,0.00,0,WeatherCatV1.21B27,2013-09-10 09:00:00,
2013-09-10 02:05:00,58.3,24.5,29.68,East,80,0.0,6.0,27,0.00,,,0.00,0,WeatherCatV1.21B27,2013-09-10 09:05:00,
2013-09-10 02:10:00,58.3,24.5,29.68,SE,137,1.0,5.0,27,0.00,,,0.00,0,WeatherCatV1.21B27,2013-09-10 09:10:00,
2013-09-10 02:15:00,58.1,24.3,29.71,SE,135,1.0,9.0,27,0.00,,,0.00,0,WeatherCatV1.21B27,2013-09-10 09:15:00,
2013-09-10 02:20:00,58.1,24.3,29.71,SSE,153,3.0,7.0,27,0.00,,,0.00,0,WeatherCatV1.21B27,2013-09-10 09:20:00,
2013-09-10 02:25:00,58.1,25.2,29.71,ESE,120,5.0,6.0,28,0.00,,,0.00,0,WeatherCatV1.21B27,2013-09-10 09:25:00,
2013-09-10 02:30:00,58.1,25.2,29.71,SSE,163,3.0,6.0,28,0.00,,,0.00,0,WeatherCatV1.21B27,2013-09-10 09:30:00,
2013-09-10 02:35:00,58.1,25.2,29.71,SSE,151,0.0,6.0,28,0.00,,,0.00,0,WeatherCatV1.21B27,2013-09-10 09:35:00,
2013-09-10 02:40:00,58.1,24.3,29.71,ESE,110,4.0,10.0,27,0.00,,,0.00,0,WeatherCatV1.21B27,2013-09-10 09:40:00,
2013-09-10 02:45:00,58.1,25.2,29.70,ESE,110,7.0,7.0,28,0.00,,,0.00,0,WeatherCatV1.21B27,2013-09-10 09:45:00,
2013-09-10 02:50:00,58.1,25.2,29.70,ESE,108,0.0,4.0,28,0.00,,,0.00,0,WeatherCatV1.21B27,2013-09-10 09:50:00,
2013-09-10 02:55:00,58.0,25.1,29.70,East,88,4.0,6.0,28,0.00,,,0.00,0,WeatherCatV1.21B27,2013-09-10 09:55:00,
2013-09-10 03:00:00,58.0,24.2,29.71,SE,128,0.0,5.0,27,0.00,,,0.00,0,WeatherCatV1.21B27,2013-09-10 10:00:00,
2013-09-10 03:05:00,57.8,24.9,29.71,East,90,2.0,4.0,28,0.00,,,0.00,0,WeatherCatV1.21B27,2013-09-10 10:05:00,
2013-09-10 03:10:00,57.8,24.9,29.71,SE,130,4.0,5.0,28,0.00,,,0.00,0,WeatherCatV1.21B27,2013-09-10 10:10:00,
2013-09-10 03:15:00,57.6,24.7,29.67,SE,126,5.0,5.0,28,0.00,,,0.00,0,WeatherCatV1.21B27,2013-09-10 10:15:00,
2013-09-10 03:20:00,57.6,24.7,29.67,SSE,154,4.0,10.0,28,0.00,,,0.00,0,WeatherCatV1.21B27,2013-09-10 10:20:00,
2013-09-10 03:25:00,57.6,24.7,29.67,ESE,118,4.0,7.0,28,0.00,,,0.00,0,WeatherCatV1.21B27,2013-09-10 10:25:00,
2013-09-10 03:30:00,57.8,25.8,29.67,ESE,121,1.0,5.0,29,0.00,,,0.00,0,WeatherCatV1.21B27,2013-09-10 10:30:00,
2013-09-10 03:35:00,57.5,25.5,29.67,ESE,116,2.0,5.0,29,0.00,,,0.00,0,WeatherCatV1.21B27,2013-09-10 10:35:00,
2013-09-10 03:40:00,57.5,25.5,29.67,SE,138,3.0,5.0,29,0.00,,,0.00,0,WeatherCatV1.21B27,2013-09-10 10:40:00,
2013-09-10 03:45:00,57.3,26.1,29.68,SE,124,0.0,6.0,30,0.00,,,0.00,0,WeatherCatV1.21B27,2013-09-10 10:45:00,
2013-09-10 03:50:00,57.3,26.1,29.68,ESE,116,13.0,13.0,30,0.00,,,0.00,0,WeatherCatV1.21B27,2013-09-10 10:50:00,
2013-09-10 03:55:00,57.2,26.0,29.68,ESE,115,0.0,7.0,30,0.00,,,0.00,0,WeatherCatV1.21B27,2013-09-10 10:55:00,
2013-09-10 04:00:00,57.0,26.7,29.67,SE,124,9.0,9.0,31,0.00,,,0.00,0,WeatherCatV1.21B27,2013-09-10 11:00:00,
2013-09-10 04:05:00,57.0,26.7,29.67,East,96,3.0,7.0,31,0.00,,,0.00,0,WeatherCatV1.21B27,2013-09-10 11:05:00,
2013-09-10 04:10:00,57.0,26.7,29.67,East,99,4.0,9.0,31,0.00,,,0.00,0,WeatherCatV1.21B27,2013-09-10 11:10:00,
2013-09-10 04:15:00,56.9,26.6,29.70,ESE,108,3.0,10.0,31,0.00,,,0.00,0,WeatherCatV1.21B27,2013-09-10 11:15:00,
2013-09-10 04:21:00,56.9,27.4,29.70,East,99,3.0,7.0,32,0.00,,,0.00,0,WeatherCatV1.21B27,2013-09-10 11:21:00,
2013-09-10 04:26:00,56.9,27.4,29.70,East,95,1.0,9.0,32,0.00,,,0.00,0,WeatherCatV1.21B27,2013-09-10 11:26:00,
2013-09-10 04:31:00,56.7,27.2,29.69,ESE,108,0.0,4.0,32,0.00,,,0.00,0,WeatherCatV1.21B27,2013-09-10 11:31:00,
2013-09-10 04:36:00,56.7,27.2,29.69,East,100,4.0,6.0,32,0.00,,,0.00,0,WeatherCatV1.21B27,2013-09-10 11:36:00,
2013-09-10 04:41:00,56.7,27.2,29.69,ESE,118,4.0,9.0,32,0.00,,,0.00,0,WeatherCatV1.21B27,2013-09-10 11:41:00,
2013-09-10 04:46:00,56.7,27.2,29.69,East,90,3.0,7.0,32,0.00,,,0.00,0,WeatherCatV1.21B27,2013-09-10 11:46:00,
2013-09-10 04:51:00,56.6,27.1,29.69,SE,144,3.0,9.0,32,0.00,,,0.00,0,WeatherCatV1.21B27,2013-09-10 11:51:00,
2013-09-10 04:56:00,56.6,26.3,29.69,SSE,154,6.0,11.0,31,0.00,,,0.00,0,WeatherCatV1.21B27,2013-09-10 11:56:00,
2013-09-10 05:01:00,56.5,26.2,29.69,ESE,119,2.0,9.0,31,0.00,,,0.00,0,WeatherCatV1.21B27,2013-09-10 12:01:00,
2013-09-10 05:06:00,56.5,27.0,29.69,SE,141,4.0,9.0,32,0.00,,,0.00,0,WeatherCatV1.21B27,2013-09-10 12:06:00,
2013-09-10 05:11:00,56.5,27.0,29.69,SE,133,1.0,12.0,32,0.00,,,0.00,0,WeatherCatV1.21B27,2013-09-10 12:11:00,
2013-09-10 05:16:00,56.3,26.8,29.70,ESE,103,3.0,10.0,32,0.00,,,0.00,0,WeatherCatV1.21B27,2013-09-10 12:16:00,
2013-09-10 05:21:00,56.3,26.8,29.70,ESE,102,3.0,4.0,32,0.00,,,0.00,0,WeatherCatV1.21B27,2013-09-10 12:21:00,
2013-09-10 05:26:00,56.2,27.5,29.70,East,95,3.0,3.0,33,0.00,,,0.00,0,WeatherCatV1.21B27,2013-09-10 12:26:00,
2013-09-10 05:31:00,56.2,27.5,29.71,ESE,118,1.0,5.0,33,0.00,,,0.00,0,WeatherCatV1.21B27,2013-09-10 12:31:00,
2013-09-10 05:36:00,56.0,28.0,29.71,SSE,160,5.0,6.0,34,0.00,,,0.00,0,WeatherCatV1.21B27,2013-09-10 12:36:00,
2013-09-10 05:41:00,55.9,28.0,29.71,SE,140,4.0,6.0,34,0.00,,,0.00,0,WeatherCatV1.21B27,2013-09-10 12:41:00,
2013-09-10 05:46:00,55.9,28.0,29.70,SE,141,0.0,7.0,34,0.00,,,0.00,0,WeatherCatV1.21B27,2013-09-10 12:46:00,
2013-09-10 05:51:00,55.9,28.0,29.70,SSE,149,5.0,5.0,34,0.00,,,0.00,0,WeatherCatV1.21B27,2013-09-10 12:51:00,
2013-09-10 05:56:00,55.9,28.0,29.70,SSE,158,1.0,5.0,34,0.00,,,0.00,0,WeatherCatV1.21B27,2013-09-10 12:56:00,
2013-09-10 06:01:00,55.7,27.8,29.70,SE,132,2.0,7.0,34,0.00,,,0.00,0,WeatherCatV1.21B27,2013-09-10 13:01:00,
2013-09-10 06:06:00,55.7,28.5,29.70,SE,128,5.0,5.0,35,0.00,,,0.00,0,WeatherCatV1.21B27,2013-09-10 13:06:00,
2013-09-10 06:11:00,55.7,28.5,29.70,ESE,119,5.0,5.0,35,0.00,,,0.00,0,WeatherCatV1.21B27,2013-09-10 13:11:00,
2013-09-10 06:16:00,55.6,28.4,29.74,ESE,108,3.0,7.0,35,0.00,,,0.00,0,WeatherCatV1.21B27,2013-09-10 13:16:00,
2013-09-10 06:21:00,55.6,28.4,29.74,SE,136,3.0,6.0,35,0.00,,,0.00,0,WeatherCatV1.21B27,2013-09-10 13:21:00,
2013-09-10 06:26:00,55.4,28.2,29.74,SSE,149,4.0,9.0,35,0.00,,,0.00,0,WeatherCatV1.21B27,2013-09-10 13:26:00,
2013-09-10 06:31:00,55.6,28.4,29.74,SE,126,6.0,7.0,35,0.00,,,0.00,0,WeatherCatV1.21B27,2013-09-10 13:31:00,
2013-09-10 06:36:00,55.6,28.4,29.74,ESE,110,10.0,10.0,35,0.00,,,0.00,0,WeatherCatV1.21B27,2013-09-10 13:36:00,
2013-09-10 06:41:00,55.4,28.2,29.74,SE,141,4.0,6.0,35,0.00,,,0.00,5,WeatherCatV1.21B27,2013-09-10 13:41:00,
2013-09-10 06:46:00,55.3,28.1,29.74,SE,129,6.0,7.0,35,0.00,,,0.00,9,WeatherCatV1.21B27,2013-09-10 13:46:00,
2013-09-10 06:51:00,55.3,28.1,29.74,SE,136,2.0,4.0,35,0.00,,,0.00,11,WeatherCatV1.21B27,2013-09-10 13:51:00,
2013-09-10 06:56:00,55.1,28.0,29.74,SE,142,4.0,7.0,35,0.00,,,0.00,12,WeatherCatV1.21B27,2013-09-10 13:56:00,
2013-09-10 07:01:00,55.3,28.1,29.75,SE,130,3.0,6.0,35,0.00,,,0.00,14,WeatherCatV1.21B27,2013-09-10 14:01:00,
2013-09-10 07:06:00,55.3,28.1,29.75,SE,145,3.0,6.0,35,0.00,,,0.00,14,WeatherCatV1.21B27,2013-09-10 14:06:00,
2013-09-10 07:11:00,55.4,28.2,29.75,ESE,114,3.0,9.0,35,0.00,,,0.00,16,WeatherCatV1.21B27,2013-09-10 14:11:00,
2013-09-10 07:16:00,55.7,28.5,29.77,ESE,116,1.0,6.0,35,0.00,,,0.00,18,WeatherCatV1.21B27,2013-09-10 14:16:00,
2013-09-10 07:21:00,56.0,28.7,29.77,SE,129,4.0,7.0,35,0.00,,,0.00,30,WeatherCatV1.21B27,2013-09-10 14:21:00,
2013-09-10 07:26:00,56.3,29.0,29.77,East,100,3.0,6.0,35,0.00,,,0.00,39,WeatherCatV1.21B27,2013-09-10 14:26:00,
2013-09-10 07:31:00,56.5,28.5,29.77,SE,128,3.0,9.0,34,0.00,,,0.00,44,WeatherCatV1.21B27,2013-09-10 14:31:00,
2013-09-10 07:36:00,56.6,28.6,29.77,ESE,107,6.0,6.0,34,0.00,,,0.00,30,WeatherCatV1.21B27,2013-09-10 14:36:00,
2013-09-10 07:41:00,56.7,28.6,29.77,ESE,107,0.0,5.0,34,0.00,,,0.00,30,WeatherCatV1.21B27,2013-09-10 14:41:00,
2013-09-10 07:46:00,56.9,28.8,29.77,ESE,114,9.0,9.0,34,0.00,,,0.00,26,WeatherCatV1.21B27,2013-09-10 14:46:00,
2013-09-10 07:51:00,57.3,29.2,29.77,ESE,110,4.0,9.0,34,0.00,,,0.00,28,WeatherCatV1.21B27,2013-09-10 14:51:00,
2013-09-10 07:56:00,57.8,28.9,29.77,SSE,153,4.0,9.0,33,0.00,,,0.00,160,WeatherCatV1.21B27,2013-09-10 14:56:00,
2013-09-10 08:01:00,58.4,28.7,29.75,SE,133,2.0,7.0,32,0.00,,,0.00,176,WeatherCatV1.21B27,2013-09-10 15:01:00,
2013-09-10 08:06:00,58.7,28.9,29.75,SSE,152,1.0,7.0,32,0.00,,,0.00,192,WeatherCatV1.21B27,2013-09-10 15:06:00,
2013-09-10 08:11:00,59.2,28.6,29.75,ESE,108,4.0,7.0,31,0.00,,,0.00,207,WeatherCatV1.21B27,2013-09-10 15:11:00,
2013-09-10 08:16:00,59.6,28.9,29.75,SSE,161,11.0,12.0,31,0.00,,,0.00,223,WeatherCatV1.21B27,2013-09-10 15:16:00,
2013-09-10 08:21:00,59.9,28.4,29.75,SE,144,2.0,11.0,30,0.00,,,0.00,241,WeatherCatV1.21B27,2013-09-10 15:21:00,
2013-09-10 08:26:00,60.2,28.6,29.75,SSE,162,10.0,11.0,30,0.00,,,0.00,255,WeatherCatV1.21B27,2013-09-10 15:26:00,
2013-09-10 08:31:00,60.5,28.9,29.75,ESE,112,4.0,7.0,30,0.00,,,0.00,271,WeatherCatV1.21B27,2013-09-10 15:31:00,
2013-09-10 08:36:00,60.9,28.4,29.75,ESE,122,4.0,11.0,29,0.00,,,0.00,288,WeatherCatV1.21B27,2013-09-10 15:36:00,
2013-09-10 08:41:00,61.0,27.7,29.75,SE,125,6.0,8.0,28,0.00,,,0.00,304,WeatherCatV1.21B27,2013-09-10 15:41:00,
2013-09-10 08:46:00,61.3,27.9,29.76,ESE,106,7.0,14.0,28,0.00,,,0.00,322,WeatherCatV1.21B27,2013-09-10 15:46:00,
2013-09-10 08:51:00,61.3,27.9,29.76,ESE,111,6.0,9.0,28,0.00,,,0.00,338,WeatherCatV1.21B27,2013-09-10 15:51:00,
2013-09-10 08:56:00,61.6,29.0,29.76,East,100,4.0,9.0,29,0.00,,,0.00,353,WeatherCatV1.21B27,2013-09-10 15:56:00,
2013-09-10 09:01:00,61.8,28.4,29.76,ESE,111,10.0,12.0,28,0.00,,,0.00,367,WeatherCatV1.21B27,2013-09-10 16:01:00,
2013-09-10 09:06:00,62.0,28.5,29.76,ESE,114,5.0,7.0,28,0.00,,,0.00,383,WeatherCatV1.21B27,2013-09-10 16:06:00,
2013-09-10 09:11:00,62.4,28.9,29.76,ESE,104,2.0,12.0,28,0.00,,,0.00,399,WeatherCatV1.21B27,2013-09-10 16:11:00,
2013-09-10 09:16:00,62.7,29.1,29.76,ESE,111,1.0,12.0,28,0.00,,,0.00,415,WeatherCatV1.21B27,2013-09-10 16:16:00,
2013-09-10 09:21:00,62.6,29.0,29.76,East,96,3.0,11.0,28,0.00,,,0.00,431,WeatherCatV1.21B27,2013-09-10 16:21:00,
2013-09-10 09:26:00,62.7,29.1,29.76,ESE,108,11.0,11.0,28,0.00,,,0.00,446,WeatherCatV1.21B27,2013-09-10 16:26:00,
2013-09-10 09:31:00,63.1,29.5,29.77,South,170,5.0,11.0,28,0.00,,,0.00,462,WeatherCatV1.21B27,2013-09-10 16:31:00,
2013-09-10 09:36:00,63.4,29.7,29.77,SE,124,4.0,6.0,28,0.00,,,0.00,475,WeatherCatV1.21B27,2013-09-10 16:36:00,
2013-09-10 09:41:00,63.7,29.1,29.77,SSE,160,6.0,15.0,27,0.00,,,0.00,487,WeatherCatV1.21B27,2013-09-10 16:41:00,
2013-09-10 09:46:00,64.0,29.4,29.77,SE,145,3.0,10.0,27,0.00,,,0.00,504,WeatherCatV1.21B27,2013-09-10 16:46:00,
2013-09-10 09:51:00,64.2,30.4,29.77,SSE,166,9.0,10.0,28,0.00,,,0.00,520,WeatherCatV1.21B27,2013-09-10 16:51:00,
2013-09-10 09:56:00,64.2,29.5,29.77,East,99,7.0,11.0,27,0.00,,,0.00,534,WeatherCatV1.21B27,2013-09-10 16:56:00,
2013-09-10 10:01:00,64.5,29.8,29.77,ESE,112,0.0,11.0,27,0.00,,,0.00,380,WeatherCatV1.21B27,2013-09-10 17:01:00,
2013-09-10 10:06:00,64.8,30.0,29.77,SE,136,9.0,12.0,27,0.00,,,0.00,561,WeatherCatV1.21B27,2013-09-10 17:06:00,
2013-09-10 10:11:00,65.2,30.4,29.77,ESE,106,4.0,7.0,27,0.00,,,0.00,410,WeatherCatV1.21B27,2013-09-10 17:11:00,
2013-09-10 10:16:00,65.3,30.5,29.77,SE,127,6.0,12.0,27,0.00,,,0.00,422,WeatherCatV1.21B27,2013-09-10 17:16:00,
2013-09-10 10:21:00,65.2,30.4,29.77,ESE,123,7.0,11.0,27,0.00,,,0.00,429,WeatherCatV1.21B27,2013-09-10 17:21:00,
2013-09-10 10:26:00,65.2,31.3,29.77,SE,141,3.0,15.0,28,0.00,,,0.00,613,WeatherCatV1.21B27,2013-09-10 17:26:00,
2013-09-10 10:31:00,65.2,31.3,29.77,SE,145,5.0,13.0,28,0.00,,,0.00,626,WeatherCatV1.21B27,2013-09-10 17:31:00,
2013-09-10 10:36:00,65.6,30.7,29.77,SE,141,6.0,11.0,27,0.00,,,0.00,454,WeatherCatV1.21B27,2013-09-10 17:36:00,
2013-09-10 10:41:00,65.8,30.0,29.77,South,170,9.0,11.0,26,0.00,,,0.00,459,WeatherCatV1.21B27,2013-09-10 17:41:00,
2013-09-10 10:46:00,66.1,31.1,29.77,SE,141,4.0,11.0,27,0.00,,,0.00,659,WeatherCatV1.21B27,2013-09-10 17:46:00,
2013-09-10 10:51:00,66.3,31.3,29.77,SSE,158,13.0,13.0,27,0.00,,,0.00,671,WeatherCatV1.21B27,2013-09-10 17:51:00,
2013-09-10 10:56:00,66.9,28.9,29.77,East,99,2.0,6.0,24,0.00,,,0.00,682,WeatherCatV1.21B27,2013-09-10 17:56:00,
2013-09-10 11:01:00,67.4,30.4,29.76,East,99,0.0,4.0,25,0.00,,,0.00,689,WeatherCatV1.21B27,2013-09-10 18:01:00,
2013-09-10 11:06:00,68.1,29.9,29.76,SSE,160,5.0,7.0,24,0.00,,,0.00,703,WeatherCatV1.21B27,2013-09-10 18:06:00,
2013-09-10 11:11:00,68.3,30.1,29.76,SSE,159,6.0,13.0,24,0.00,,,0.00,714,WeatherCatV1.21B27,2013-09-10 18:11:00,
2013-09-10 11:16:00,68.3,30.1,29.75,SE,124,0.0,6.0,24,0.00,,,0.00,724,WeatherCatV1.21B27,2013-09-10 18:16:00,
2013-09-10 11:21:00,68.8,29.5,29.75,SE,127,5.0,12.0,23,0.00,,,0.00,731,WeatherCatV1.21B27,2013-09-10 18:21:00,
2013-09-10 11:26:00,68.9,29.6,29.75,SE,140,6.0,12.0,23,0.00,,,0.00,740,WeatherCatV1.21B27,2013-09-10 18:26:00,
2013-09-10 11:31:00,68.9,29.6,29.75,SE,129,8.0,13.0,23,0.00,,,0.00,749,WeatherCatV1.21B27,2013-09-10 18:31:00,
2013-09-10 11:36:00,68.9,29.6,29.75,ESE,111,3.0,14.0,23,0.00,,,0.00,756,WeatherCatV1.21B27,2013-09-10 18:36:00,
2013-09-10 11:41:00,69.6,30.2,29.75,SSE,153,5.0,7.0,23,0.00,,,0.00,765,WeatherCatV1.21B27,2013-09-10 18:41:00,
2013-09-10 11:46:00,69.9,29.3,29.73,ESE,112,0.0,8.0,22,0.00,,,0.00,770,WeatherCatV1.21B27,2013-09-10 18:46:00,
2013-09-10 11:51:00,70.3,29.6,29.73,SE,130,6.0,12.0,22,0.00,,,0.00,775,WeatherCatV1.21B27,2013-09-10 18:51:00,
2013-09-10 11:56:00,70.8,28.9,29.73,ESE,102,1.0,3.0,21,0.00,,,0.00,784,WeatherCatV1.21B27,2013-09-10 18:56:00,
2013-09-10 12:01:00,71.1,29.2,29.73,SE,139,8.0,10.0,21,0.00,,,0.00,791,WeatherCatV1.21B27,2013-09-10 19:01:00,
2013-09-10 12:06:00,71.1,29.2,29.73,ENE,64,3.0,11.0,21,0.00,,,0.00,793,WeatherCatV1.21B27,2013-09-10 19:06:00,
2013-09-10 12:11:00,70.6,28.8,29.73,ESE,105,0.0,13.0,21,0.00,,,0.00,800,WeatherCatV1.21B27,2013-09-10 19:11:00,
2013-09-10 12:16:00,71.1,28.0,29.73,East,99,1.0,10.0,20,0.00,,,0.00,805,WeatherCatV1.21B27,2013-09-10 19:16:00,
2013-09-10 12:21:00,71.5,28.3,29.73,ESE,108,0.0,5.0,20,0.00,,,0.00,809,WeatherCatV1.21B27,2013-09-10 19:21:00,
2013-09-10 12:26:00,72.0,28.7,29.73,ESE,104,1.0,6.0,20,0.00,,,0.00,814,WeatherCatV1.21B27,2013-09-10 19:26:00,
2013-09-10 12:31:00,72.5,27.9,29.73,East,101,10.0,10.0,19,0.00,,,0.00,816,WeatherCatV1.21B27,2013-09-10 19:31:00,
2013-09-10 12:36:00,72.5,27.9,29.73,NNE,32,0.0,4.0,19,0.00,,,0.00,819,WeatherCatV1.21B27,2013-09-10 19:36:00,
2013-09-10 12:41:00,72.7,28.1,29.73,ESE,111,3.0,3.0,19,0.00,,,0.00,824,WeatherCatV1.21B27,2013-09-10 19:41:00,
2013-09-10 12:46:00,72.7,25.4,29.71,East,98,2.0,7.0,17,0.00,,,0.00,826,WeatherCatV1.21B27,2013-09-10 19:46:00,
2013-09-10 12:51:00,72.8,26.8,29.71,ESE,118,5.0,10.0,18,0.00,,,0.00,824,WeatherCatV1.21B27,2013-09-10 19:51:00,
2013-09-10 12:56:00,72.7,25.4,29.71,SSE,161,5.0,11.0,17,0.00,,,0.00,830,WeatherCatV1.21B27,2013-09-10 19:56:00,
2013-09-10 13:01:00,72.7,26.8,29.71,SSE,168,5.0,8.0,18,0.00,,,0.00,830,WeatherCatV1.21B27,2013-09-10 20:01:00,
2013-09-10 13:06:00,73.0,25.6,29.71,NE,51,7.0,10.0,17,0.00,,,0.00,828,WeatherCatV1.21B27,2013-09-10 20:06:00,
2013-09-10 13:11:00,73.2,27.1,29.71,SE,135,0.0,5.0,18,0.00,,,0.00,830,WeatherCatV1.21B27,2013-09-10 20:11:00,
2013-09-10 13:16:00,73.5,27.4,29.72,South,174,9.0,13.0,18,0.00,,,0.00,830,WeatherCatV1.21B27,2013-09-10 20:16:00,
2013-09-10 13:21:00,73.7,26.2,29.72,ESE,116,4.0,6.0,17,0.00,,,0.00,830,WeatherCatV1.21B27,2013-09-10 20:21:00,
2013-09-10 13:26:00,74.2,26.6,29.72,South,175,0.0,11.0,17,0.00,,,0.00,828,WeatherCatV1.21B27,2013-09-10 20:26:00,
2013-09-10 13:31:00,74.6,28.3,29.70,SSE,159,6.0,11.0,18,0.00,,,0.00,824,WeatherCatV1.21B27,2013-09-10 20:31:00,
2013-09-10 13:36:00,74.0,27.8,29.70,SSE,149,12.0,14.0,18,0.00,,,0.00,824,WeatherCatV1.21B27,2013-09-10 20:36:00,
2013-09-10 13:41:00,73.5,27.4,29.70,SE,126,1.0,8.0,18,0.00,,,0.00,821,WeatherCatV1.21B27,2013-09-10 20:41:00,
2013-09-10 13:46:00,73.5,27.4,29.70,South,173,1.0,10.0,18,0.00,,,0.00,817,WeatherCatV1.21B27,2013-09-10 20:46:00,
2013-09-10 13:51:00,73.9,27.7,29.70,SE,130,0.0,3.0,18,0.00,,,0.00,817,WeatherCatV1.21B27,2013-09-10 20:51:00,
2013-09-10 13:56:00,74.9,25.7,29.70,SSE,147,0.0,7.0,16,0.00,,,0.00,814,WeatherCatV1.21B27,2013-09-10 20:56:00,
2013-09-10 14:01:00,75.8,26.4,29.69,ESE,107,0.0,7.0,16,0.00,,,0.00,809,WeatherCatV1.21B27,2013-09-10 21:01:00,
2013-09-10 14:07:00,76.0,28.0,29.69,SSE,163,8.0,10.0,17,0.00,,,0.00,803,WeatherCatV1.21B27,2013-09-10 21:07:00,
2013-09-10 14:13:00,75.8,27.9,29.69,ESE,110,4.0,8.0,17,0.00,,,0.00,796,WeatherCatV1.21B27,2013-09-10 21:13:00,
2013-09-10 14:18:00,76.1,28.1,29.67,South,184,1.0,1.0,17,0.00,,,0.00,789,WeatherCatV1.21B27,2013-09-10 21:18:00,
2013-09-10 14:23:00,76.7,27.1,29.67,SE,139,5.0,8.0,16,0.00,,,0.00,784,WeatherCatV1.21B27,2013-09-10 21:23:00,
2013-09-10 14:28:00,76.5,27.0,29.67,ESE,120,3.0,10.0,16,0.00,,,0.00,779,WeatherCatV1.21B27,2013-09-10 21:28:00,
2013-09-10 14:33:00,76.0,28.0,29.67,SSE,151,0.0,7.0,17,0.00,,,0.00,773,WeatherCatV1.21B27,2013-09-10 21:33:00,
2013-09-10 14:39:00,76.3,28.3,29.67,ESE,112,0.0,6.0,17,0.00,,,0.00,765,WeatherCatV1.21B27,2013-09-10 21:39:00,
2013-09-10 14:44:00,76.5,28.4,29.67,South,178,1.0,7.0,17,0.00,,,0.00,758,WeatherCatV1.21B27,2013-09-10 21:44:00,
2013-09-10 14:49:00,76.8,28.7,29.67,SE,143,0.0,5.0,17,0.00,,,0.00,749,WeatherCatV1.21B27,2013-09-10 21:49:00,
2013-09-10 14:55:00,77.4,27.7,29.67,SE,139,0.0,1.0,16,0.00,,,0.00,742,WeatherCatV1.21B27,2013-09-10 21:55:00,
2013-09-10 15:01:00,77.0,27.4,29.67,SSE,160,4.0,7.0,16,0.00,,,0.00,731,WeatherCatV1.21B27,2013-09-10 22:01:00,
2013-09-10 15:07:00,76.3,26.8,29.67,SE,133,0.0,6.0,16,0.00,,,0.00,715,WeatherCatV1.21B27,2013-09-10 22:07:00,
2013-09-10 15:13:00,76.0,26.6,29.67,SE,132,0.0,5.0,16,0.00,,,0.00,707,WeatherCatV1.21B27,2013-09-10 22:13:00,
2013-09-10 15:19:00,75.8,26.4,29.68,ESE,112,5.0,9.0,16,0.00,,,0.00,693,WeatherCatV1.21B27,2013-09-10 22:19:00,
2013-09-10 15:25:00,76.1,26.6,29.68,ESE,114,0.0,5.0,16,0.00,,,0.00,680,WeatherCatV1.21B27,2013-09-10 22:25:00,
2013-09-10 15:31:00,76.3,26.8,29.68,ENE,72,2.0,7.0,16,0.00,,,0.00,659,WeatherCatV1.21B27,2013-09-10 22:31:00,
2013-09-10 15:37:00,76.1,26.6,29.68,SE,143,7.0,7.0,16,0.00,,,0.00,645,WeatherCatV1.21B27,2013-09-10 22:37:00,
2013-09-10 15:43:00,76.5,25.4,29.68,ESE,119,0.0,0.0,15,0.00,,,0.00,629,WeatherCatV1.21B27,2013-09-10 22:43:00,
2013-09-10 15:49:00,76.5,23.8,29.66,SSE,148,3.0,9.0,14,0.00,,,0.00,617,WeatherCatV1.21B27,2013-09-10 22:49:00,
2013-09-10 15:55:00,76.0,23.4,29.66,SSE,161,4.0,7.0,14,0.00,,,0.00,601,WeatherCatV1.21B27,2013-09-10 22:55:00,
2013-09-10 16:01:00,75.6,23.0,29.67,SSE,158,4.0,11.0,14,0.00,,,0.00,585,WeatherCatV1.21B27,2013-09-10 23:01:00,
2013-09-10 16:07:00,74.6,20.5,29.67,South,180,2.0,7.0,13,0.00,,,0.00,573,WeatherCatV1.21B27,2013-09-10 23:07:00,
2013-09-10 16:13:00,74.9,20.8,29.67,SE,124,4.0,13.0,13,0.00,,,0.00,557,WeatherCatV1.21B27,2013-09-10 23:13:00,
2013-09-10 16:19:00,74.6,20.5,29.67,SE,135,3.0,14.0,13,0.00,,,0.00,540,WeatherCatV1.21B27,2013-09-10 23:19:00,
2013-09-10 16:25:00,73.9,21.7,29.67,SE,145,5.0,5.0,14,0.00,,,0.00,524,WeatherCatV1.21B27,2013-09-10 23:25:00,
2013-09-10 16:30:00,74.6,22.3,29.69,SE,134,1.0,5.0,14,0.00,,,0.00,510,WeatherCatV1.21B27,2013-09-10 23:30:00,
2013-09-10 16:35:00,74.7,20.6,29.69,SE,143,0.0,10.0,13,0.00,,,0.00,496,WeatherCatV1.21B27,2013-09-10 23:35:00,
2013-09-10 16:40:00,75.1,20.9,29.69,ESE,110,0.0,1.0,13,0.00,,,0.00,480,WeatherCatV1.21B27,2013-09-10 23:40:00,
2013-09-10 16:45:00,75.4,21.1,29.67,SE,141,5.0,9.0,13,0.00,,,0.00,464,WeatherCatV1.21B27,2013-09-10 23:45:00,
2013-09-10 16:50:00,74.9,20.8,29.67,East,100,0.0,3.0,13,0.00,,,0.00,450,WeatherCatV1.21B27,2013-09-10 23:50:00,
2013-09-10 16:55:00,74.2,21.9,29.67,SSE,152,2.0,9.0,14,0.00,,,0.00,438,WeatherCatV1.21B27,2013-09-10 23:55:00,
2013-09-10 17:00:00,73.9,21.7,29.69,SSE,153,4.0,7.0,14,0.00,,,0.00,422,WeatherCatV1.21B27,2013-09-11 00:00:00,
2013-09-10 17:05:00,73.7,21.5,29.69,SSE,153,8.0,8.0,14,0.00,,,0.00,406,WeatherCatV1.21B27,2013-09-11 00:05:00,
2013-09-10 17:10:00,73.3,21.2,29.69,ESE,107,0.0,7.0,14,0.00,,,0.00,390,WeatherCatV1.21B27,2013-09-11 00:10:00,
2013-09-10 17:15:00,73.5,23.0,29.70,ESE,103,4.0,4.0,15,0.00,,,0.00,376,WeatherCatV1.21B27,2013-09-11 00:15:00,
2013-09-10 17:20:00,73.7,23.2,29.70,SE,135,0.0,2.0,15,0.00,,,0.00,362,WeatherCatV1.21B27,2013-09-11 00:20:00,
2013-09-10 17:25:00,74.2,23.6,29.70,ESE,121,1.0,4.0,15,0.00,,,0.00,339,WeatherCatV1.21B27,2013-09-11 00:25:00,
2013-09-10 17:30:00,73.7,23.2,29.70,SE,128,3.0,6.0,15,0.00,,,0.00,323,WeatherCatV1.21B27,2013-09-11 00:30:00,
2013-09-10 17:35:00,73.3,24.4,29.70,SSE,156,0.0,7.0,16,0.00,,,0.00,308,WeatherCatV1.21B27,2013-09-11 00:35:00,
2013-09-10 17:40:00,73.2,24.3,29.70,ESE,103,0.0,3.0,16,0.00,,,0.00,290,WeatherCatV1.21B27,2013-09-11 00:40:00,
2013-09-10 17:45:00,73.2,24.3,29.72,SE,141,0.0,4.0,16,0.00,,,0.00,272,WeatherCatV1.21B27,2013-09-11 00:45:00,
2013-09-10 17:50:00,73.0,24.2,29.72,ENE,77,0.0,0.0,16,0.00,,,0.00,255,WeatherCatV1.21B27,2013-09-11 00:50:00,
2013-09-10 17:55:00,73.0,24.2,29.72,ENE,77,0.0,0.0,16,0.00,,,0.00,239,WeatherCatV1.21B27,2013-09-11 00:55:00,
2013-09-10 18:00:00,73.0,25.6,29.72,ENE,62,0.0,0.0,17,0.00,,,0.00,223,WeatherCatV1.21B27,2013-09-11 01:00:00,
2013-09-10 18:05:00,73.2,24.3,29.72,ENE,71,0.0,2.0,16,0.00,,,0.00,209,WeatherCatV1.21B27,2013-09-11 01:05:00,
2013-09-10 18:10:00,73.0,24.2,29.72,ENE,72,0.0,1.0,16,0.00,,,0.00,192,WeatherCatV1.21B27,2013-09-11 01:10:00,
2013-09-10 18:15:00,72.8,25.5,29.72,ENE,72,0.0,0.0,17,0.00,,,0.00,178,WeatherCatV1.21B27,2013-09-11 01:15:00,
2013-09-10 18:20:00,72.8,25.5,29.72,ENE,66,0.0,1.0,17,0.00,,,0.00,162,WeatherCatV1.21B27,2013-09-11 01:20:00,
2013-09-10 18:25:00,72.7,25.4,29.72,NW,319,5.0,5.0,17,0.00,,,0.00,144,WeatherCatV1.21B27,2013-09-11 01:25:00,
2013-09-10 18:30:00,72.1,24.9,29.74,SW,232,4.0,7.0,17,0.00,,,0.00,128,WeatherCatV1.21B27,2013-09-11 01:30:00,
2013-09-10 18:35:00,71.8,24.6,29.74,NW,306,0.0,1.0,17,0.00,,,0.00,105,WeatherCatV1.21B27,2013-09-11 01:35:00,
2013-09-10 18:40:00,71.8,26.0,29.74,NW,307,2.0,3.0,18,0.00,,,0.00,86,WeatherCatV1.21B27,2013-09-11 01:40:00,
2013-09-10 18:45:00,71.6,27.2,29.74,NW,322,0.0,4.0,19,0.00,,,0.00,60,WeatherCatV1.21B27,2013-09-11 01:45:00,
2013-09-10 18:50:00,71.1,29.2,29.74,WNW,301,4.0,11.0,21,0.00,,,0.00,18,WeatherCatV1.21B27,2013-09-11 01:50:00,
2013-09-10 18:55:00,69.8,31.4,29.74,West,274,6.0,11.0,24,0.00,,,0.00,14,WeatherCatV1.21B27,2013-09-11 01:55:00,
2013-09-10 19:00:00,68.8,31.5,29.75,WNW,288,5.0,8.0,25,0.00,,,0.00,19,WeatherCatV1.21B27,2013-09-11 02:00:00,
2013-09-10 19:05:00,67.9,32.7,29.75,NW,309,3.0,6.0,27,0.00,,,0.00,12,WeatherCatV1.21B27,2013-09-11 02:05:00,
2013-09-10 19:10:00,67.4,33.2,29.75,West,278,4.0,5.0,28,0.00,,,0.00,7,WeatherCatV1.21B27,2013-09-11 02:10:00,
2013-09-10 19:15:00,66.9,32.7,29.75,West,278,2.0,6.0,28,0.00,,,0.00,5,WeatherCatV1.21B27,2013-09-11 02:15:00,
2013-09-10 19:20:00,66.4,32.3,29.75,WNW,283,0.0,0.0,28,0.00,,,0.00,0,WeatherCatV1.21B27,2013-09-11 02:20:00,
2013-09-10 19:25:00,66.1,32.9,29.75,WSW,244,3.0,4.0,29,0.00,,,0.00,0,WeatherCatV1.21B27,2013-09-11 02:25:00,
2013-09-10 19:30:00,65.6,33.3,29.76,West,268,0.0,3.0,30,0.00,,,0.00,0,WeatherCatV1.21B27,2013-09-11 02:30:00,
2013-09-10 19:35:00,65.2,33.0,29.76,WNW,283,3.0,4.0,30,0.00,,,0.00,0,WeatherCatV1.21B27,2013-09-11 02:35:00,
2013-09-10 19:40:00,64.8,33.5,29.76,WNW,283,0.0,0.0,31,0.00,,,0.00,0,WeatherCatV1.21B27,2013-09-11 02:40:00,
2013-09-10 19:45:00,64.5,33.2,29.78,WNW,283,2.0,3.0,31,0.00,,,0.00,0,WeatherCatV1.21B27,2013-09-11 02:45:00,
2013-09-10 19:50:00,64.3,34.6,29.78,WNW,288,2.0,4.0,33,0.00,,,0.00,0,WeatherCatV1.21B27,2013-09-11 02:50:00,
2013-09-10 19:55:00,64.0,35.8,29.78,WNW,301,0.0,5.0,35,0.00,,,0.00,0,WeatherCatV1.21B27,2013-09-11 02:55:00,
2013-09-10 20:00:00,63.9,35.7,29.78,WNW,301,0.0,5.0,35,0.00,,,0.00,0,WeatherCatV1.21B27,2013-09-11 03:00:00,
2013-09-10 20:05:00,63.7,36.2,29.78,NW,320,0.0,2.0,36,0.00,,,0.00,0,WeatherCatV1.21B27,2013-09-11 03:05:00,
2013-09-10 20:10:00,63.4,36.0,29.78,NW,317,0.0,3.0,36,0.00,,,0.00,0,WeatherCatV1.21B27,2013-09-11 03:10:00,
2013-09-10 20:15:00,63.2,35.8,29.77,NW,320,0.0,2.0,36,0.00,,,0.00,0,WeatherCatV1.21B27,2013-09-11 03:15:00,
2013-09-10 20:20:00,63.1,35.7,29.77,NW,320,0.0,3.0,36,0.00,,,0.00,0,WeatherCatV1.21B27,2013-09-11 03:20:00,
2013-09-10 20:25:00,62.9,35.5,29.77,NW,320,0.0,0.0,36,0.00,,,0.00,0,WeatherCatV1.21B27,2013-09-11 03:25:00,
2013-09-10 20:30:00,62.6,35.3,29.78,NW,320,0.0,0.0,36,0.00,,,0.00,0,WeatherCatV1.21B27,2013-09-11 03:30:00,
2013-09-10 20:35:00,62.4,35.8,29.78,NW,317,1.0,2.0,37,0.00,,,0.00,0,WeatherCatV1.21B27,2013-09-11 03:35:00,
2013-09-10 20:40:00,62.3,35.7,29.78,SW,218,0.0,0.0,37,0.00,,,0.00,0,WeatherCatV1.21B27,2013-09-11 03:40:00,
2013-09-10 20:45:00,62.0,36.1,29.78,SW,218,0.0,0.0,38,0.00,,,0.00,0,WeatherCatV1.21B27,2013-09-11 03:45:00,
2013-09-10 20:50:00,61.8,35.9,29.78,SW,218,0.0,0.0,38,0.00,,,0.00,0,WeatherCatV1.21B27,2013-09-11 03:50:00,
2013-09-10 20:55:00,61.6,36.4,29.78,SW,218,0.0,0.0,39,0.00,,,0.00,0,WeatherCatV1.21B27,2013-09-11 03:55:00,
2013-09-10 21:00:00,61.5,37.0,29.78,WSW,239,0.0,0.0,40,0.00,,,0.00,0,WeatherCatV1.21B27,2013-09-11 04:00:00,
2013-09-10 21:02:00,61.5,37.0,29.78,WSW,239,0.0,0.0,40,0.00,,,0.00,0,WeatherCatV1.21B27,2013-09-11 04:02:00,
2013-09-10 21:03:00,61.3,36.1,29.78,WSW,239,0.0,0.0,39,0.00,,,0.00,0,WeatherCatV1.21B27,2013-09-11 04:03:00,
2013-09-10 21:04:00,61.3,36.1,29.78,WSW,239,0.0,0.0,39,0.00,,,0.00,0,WeatherCatV1.21B27,2013-09-11 04:04:00,
2013-09-10 21:05:00,61.3,36.1,29.78,WSW,239,0.0,0.0,39,0.00,,,0.00,0,WeatherCatV1.21B27,2013-09-11 04:05:00,
2013-09-10 21:10:00,61.2,36.0,29.78,WSW,238,3.0,4.0,39,0.00,,,0.00,0,WeatherCatV1.21B27,2013-09-11 04:10:00,
2013-09-10 21:12:00,61.0,35.9,29.78,SW,222,2.0,4.0,39,0.00,,,0.00,0,WeatherCatV1.21B27,2013-09-11 04:12:00,
2013-09-10 21:15:00,60.9,35.8,29.79,SW,222,0.0,0.0,39,0.00,,,0.00,0,WeatherCatV1.21B27,2013-09-11 04:15:00,
2013-09-10 21:20:00,60.9,35.8,29.79,SW,221,0.0,4.0,39,0.00,,,0.00,0,WeatherCatV1.21B27,2013-09-11 04:20:00,
2013-09-10 21:25:00,60.7,34.9,29.79,SW,221,3.0,3.0,38,0.00,,,0.00,0,WeatherCatV1.21B27,2013-09-11 04:25:00,
2013-09-10 21:30:00,60.5,34.8,29.79,SW,219,3.0,3.0,38,0.00,,,0.00,0,WeatherCatV1.21B27,2013-09-11 04:30:00,
2013-09-10 21:35:00,60.5,34.8,29.79,SW,218,1.0,4.0,38,0.00,,,0.00,0,WeatherCatV1.21B27,2013-09-11 04:35:00,
2013-09-10 21:40:00,60.4,36.0,29.79,SW,218,0.0,0.0,40,0.00,,,0.00,0,WeatherCatV1.21B27,2013-09-11 04:40:00,
2013-09-10 21:45:00,60.4,36.0,29.79,SW,218,0.0,0.0,40,0.00,,,0.00,0,WeatherCatV1.21B27,2013-09-11 04:45:00,
2013-09-10 21:50:00,60.2,36.4,29.79,SW,218,0.0,0.0,41,0.00,,,0.00,0,WeatherCatV1.21B27,2013-09-11 04:50:00,
2013-09-10 21:55:00,60.2,36.4,29.79,SW,218,0.0,0.0,41,0.00,,,0.00,0,WeatherCatV1.21B27,2013-09-11 04:55:00,
2013-09-10 22:00:00,59.9,36.1,29.79,SW,218,0.0,0.0,41,0.00,,,0.00,0,WeatherCatV1.21B27,2013-09-11 05:00:00,
2013-09-10 22:05:00,59.9,35.5,29.79,SW,218,0.0,0.0,40,0.00,,,0.00,0,WeatherCatV1.21B27,2013-09-11 05:05:00,
2013-09-10 22:10:00,59.8,35.4,29.79,SW,218,0.0,0.0,40,0.00,,,0.00,0,WeatherCatV1.21B27,2013-09-11 05:10:00,
2013-09-10 22:15:00,59.6,34.6,29.78,SW,218,0.0,0.0,39,0.00,,,0.00,0,WeatherCatV1.21B27,2013-09-11 05:15:00,
2013-09-10 22:20:00,59.5,35.2,29.78,SW,218,0.0,0.0,40,0.00,,,0.00,0,WeatherCatV1.21B27,2013-09-11 05:20:00,
2013-09-10 22:25:00,59.3,35.0,29.78,SW,218,0.0,0.0,40,0.00,,,0.00,0,WeatherCatV1.21B27,2013-09-11 05:25:00,
2013-09-10 22:30:00,59.2,36.1,29.78,WSW,256,0.0,3.0,42,0.00,,,0.00,0,WeatherCatV1.21B27,2013-09-11 05:30:00,
2013-09-10 22:35:00,59.3,35.6,29.78,WSW,257,0.0,0.0,41,0.00,,,0.00,0,WeatherCatV1.21B27,2013-09-11 05:35:00,
2013-09-10 22:40:00,59.2,35.5,29.78,WSW,257,0.0,0.0,41,0.00,,,0.00,0,WeatherCatV1.21B27,2013-09-11 05:40:00,
2013-09-10 22:45:00,59.0,35.3,29.77,WSW,257,0.0,0.0,41,0.00,,,0.00,0,WeatherCatV1.21B27,2013-09-11 05:45:00,
2013-09-10 22:50:00,59.0,34.1,29.77,WSW,257,0.0,0.0,39,0.00,,,0.00,0,WeatherCatV1.21B27,2013-09-11 05:50:00,
2013-09-10 22:55:00,58.9,34.6,29.77,WSW,257,0.0,0.0,40,0.00,,,0.00,0,WeatherCatV1.21B27,2013-09-11 05:55:00,
2013-09-10 23:00:00,58.7,33.8,29.77,WSW,257,1.0,3.0,39,0.00,,,0.00,0,WeatherCatV1.21B27,2013-09-11 06:00:00,
2013-09-10 23:05:00,58.7,33.2,29.77,WSW,256,0.0,1.0,38,0.00,,,0.00,0,WeatherCatV1.21B27,2013-09-11 06:05:00,
2013-09-10 23:10:00,58.7,33.2,29.77,WSW,256,0.0,0.0,38,0.00,,,0.00,0,WeatherCatV1.21B27,2013-09-11 06:10:00,
2013-09-10 23:15:00,58.7,32.5,29.75,WSW,256,0.0,0.0,37,0.00,,,0.00,0,WeatherCatV1.21B27,2013-09-11 06:15:00,
2013-09-10 23:20:00,58.7,33.2,29.75,WSW,256,0.0,0.0,38,0.00,,,0.00,0,WeatherCatV1.21B27,2013-09-11 06:20:00,
2013-09-10 23:25:00,58.7,35.1,29.75,WSW,256,0.0,0.0,41,0.00,,,0.00,0,WeatherCatV1.21B27,2013-09-11 06:25:00,
2013-09-10 23:30:00,58.7,34.4,29.75,WSW,256,0.0,0.0,40,0.00,,,0.00,0,WeatherCatV1.21B27,2013-09-11 06:30:00,
2013-09-10 23:35:00,58.6,33.7,29.75,WSW,256,0.0,0.0,39,0.00,,,0.00,0,WeatherCatV1.21B27,2013-09-11 06:35:00,
2013-09-10 23:40:00,58.4,34.2,29.75,WSW,256,0.0,0.0,40,0.00,,,0.00,0,WeatherCatV1.21B27,2013-09-11 06:40:00,
2013-09-10 23:45:00,58.3,33.5,29.76,WSW,256,0.0,0.0,39,0.00,,,0.00,0,WeatherCatV1.21B27,2013-09-11 06:45:00,
2013-09-10 23:50:00,58.1,33.3,29.76,WSW,256,0.0,0.0,39,0.00,,,0.00,0,WeatherCatV1.21B27,2013-09-11 06:50:00,
2013-09-10 23:55:00,58.0,33.2,29.76,WSW,256,0.0,0.0,39,0.00,,,0.00,0,WeatherCatV1.21B27,2013-09-11 06:55:00,